Terminal Aerodrome Forecast
Issued by NWS Rapid City, SD

Home | Current Version | Previous Version | Graphics & Text | Print | Product List | Glossary On
Versions: 1 2 3 4 5 6 7 8 9 10 11 12 13 14
928
FTUS43 KUNR 052323
TAFRAP
TAF
KRAP 052323Z 0600/0624 35010KT P6SM SCT250
     FM061800 33020G30KT P6SM BKN150=

USA.gov is the U.S. government's official web portal to all federal, state and local government web resources and services.